RH
22 22 24 19 20 18 13 14 15 12 10 12 15 18 22 22 26 41 41 42 38 37 42 52 61 61 66 75 80 73 74 84 80 82 88 89 84 85 86 83 83 87 84 84
23 25 18 17 12 13 13 15 14 15 12 10 16 17 22 28 36 42 45 42 44 48 56 54 64 62 66 68 74 76 72 78 76 70 84 85 87 86 83 81 82 82 84 86
24 18 13 12 12 12 18 19 18 18 13 13 13 20 27 31 40 43 49 50 48 50 55 60 66 71 59 69 73 72 74 80 73 84 88 93 93 91 87 82 81 89 82 83
16 12 9 13 13 16 28 14 13 14 17 19 17 22 29 37 43 48 51 54 57 56 54 57 58 71 63 63 66 76 84 92 90 90 80 81 79 75 71 74 67 76 88 84
14 13 12 14 15 13 16 15 16 18 19 21 20 24 30 39 50 48 50 50 53 57 55 60 68 69 68 65 66 84 88 92 89 84 84 86 80 77 81 94 85 83 91 85
13 11 10 10 12 13 13 16 19 27 25 28 23 24 37 40 40 43 42 46 49 51 51 51 58 60 69 68 70 78 90 93 93 90 87 90 93 90 90 90 95 94 93 85
15 14 12 10 13 14 16 28 34 32 39 32 27 30 32 29 33 35 40 43 47 46 50 53 56 56 56 60 73 82 87 89 91 94 95 92 91 94 94 92 91 88 82 87
21 20 14 11 14 17 20 22 31 46 38 32 30 43 38 35 32 33 35 38 43 50 51 53 54 57 56 54 57 63 79 79 87 94 95 96 96 97 94 93 93 91 85 84
25 20 12 11 12 13 20 24 23 29 45 30 34 36 28 28 29 30 36 42 46 48 53 55 54 54 57 58 60 63 68 68 73 75 79 85 94 96 96 94 95 94 89 83
20 23 19 14 12 15 16 16 22 31 38 42 35 46 45 37 34 35 39 41 44 44 45 48 51 54 55 54 57 58 64 76 78 80 82 82 87 89 93 95 94 95 94 95
20 22 20 18 23 22 20 24 31 32 36 40 48 44 43 34 35 37 38 37 43 50 49 52 51 50 52 56 57 60 62 65 70 76 80 84 77 84 85 92 92 93 93 95
32 29 35 24 20 17 21 21 32 38 35 41 43 36 29 36 31 33 38 41 52 48 50 51 52 56 56 56 58 62 65 70 74 77 78 80 84 80 85 90 88 91 94 95
24 37 37 27 26 17 21 24 34 40 44 37 42 39 27 36 44 48 50 50 49 50 56 56 58 62 63 64 65 65 68 70 73 82 87 90 91 93 93 92 91 90 92 91
36 38 34 30 31 26 27 23 21 38 44 41 41 36 31 32 43 49 49 50 52 56 58 62 61 64 65 64 67 66 68 74 81 84 87 89 91 92 94 92 88 84 87 92
26 29 35 31 23 26 28 24 23 28 32 29 24 29 24 32 49 49 53 51 46 52 54 56 58 62 62 60 62 66 73 77 88 88 92 93 94 95 95 96 95 91 89 88
32 34 44 39 29 30 32 27 25 24 26 26 24 28 50 53 51 52 50 48 53 60 57 56 56 58 58 61 66 67 72 78 90 92 91 92 95 95 95 96 96 96 92 92
42 51 54 59 42 32 40 34 29 28 26 24 26 30 49 48 44 53 57 56 56 54 52 54 56 62 65 68 68 79 81 87 93 94 93 93 94 95 95 95 96 96 95 96
43 48 55 55 45 57 36 30 27 32 42 38 39 49 51 52 63 61 61 53 49 48 51 57 63 66 65 72 79 84 89 92 93 94 94 93 93 92 93 95 96 96 96 97
37 49 53 47 53 42 33 28 32 39 56 53 57 54 53 58 56 57 53 52 54 51 55 58 64 65 75 75 85 90 92 93 92 92 95 93 93 94 94 95 96 96 97 95
38 47 41 65 53 51 43 33 40 35 63 59 53 53 49 53 64 67 63 57 55 62 62 67 65 75 78 81 89 94 95 96 96 93 93 93 91 94 94 94 96 96 94 94
44 50 45 57 56 48 39 39 38 50 55 57 51 59 58 60 59 58 62 62 64 69 72 69 78 80 82 88 93 96 96 96 94 94 90 91 93 95 94 96 96 96 95 98
40 55 60 63 62 54 40 40 43 57 72 50 55 61 63 62 64 62 64 65 66 65 70 74 79 84 83 91 94 96 97 95 94 93 93 93 95 93 93 95 94 94 97 99
39 48 55 53 57 56 60 59 67 57 57 59 55 56 60 58 58 64 70 73 72 75 80 80 82 87 90 93 95 98 95 96 96 95 96 96 96 95 94 96 95 98 96 98
43 51 50 43 49 55 51 55 49 50 49 49 50 48 61 74 76 76 75 77 78 80 81 82 90 93 93 95 95 95 96 95 94 95 95 97 97 96 94 96 98 95 91 97
40 45 51 57 55 56 64 68 51 53 50 47 54 71 76 77 86 85 84 87 90 89 81 77 91 93 93 95 96 96 95 94 97 97 97 97 96 94 96 94 97 88 93 97
46 48 54 52 56 69 86 79 69 74 75 66 70 77 76 78 83 88 89 92 95 92 91 92 93 94 94 94 96 96 96 96 98 99 98 98 98 92 94 97 91 99 100 100
Wind_Speed
2 4 6 11 9 8 7 4 4 5 4 7 9 3 7 6 12 13 14 13 18 19 13 12 10 12 10 9 11 13 14 13 10 8 5 4 4 3 4 5 10 9 9 10
6 7 15 7 7 7 3 3 6 3 2 6 6 5 3 9 6 14 15 17 14 11 13 11 11 12 14 15 15 12 14 13 12 9 4 4 4 3 3 3 5 8 10 10
7 11 6 8 3 5 4 3 2 1 4 4 7 4 3 4 12 12 7 10 13 16 17 13 12 11 13 10 13 17 17 15 11 8 4 2 1 2 1 3 3 7 11 11
7 8 6 1 3 5 3 3 5 5 5 2 4 3 4 4 6 14 11 10 9 9 12 12 13 12 15 16 15 8 8 7 6 7 6 7 6 7 6 5 5 5 9 11
8 2 4 5 2 4 4 2 3 3 3 4 2 6 6 4 6 11 10 13 10 8 12 10 8 10 6 7 8 6 7 7 6 8 7 6 8 5 4 2 6 6 5 9
8 4 4 6 3 2 1 5 9 6 4 4 4 7 4 8 15 7 6 11 12 11 10 10 10 10 8 7 6 6 4 4 5 6 7 8 8 8 5 6 6 6 4 6
7 6 3 4 4 8 9 8 5 7 7 6 7 4 7 8 14 13 13 11 9 10 10 10 9 8 8 9 9 9 9 8 8 8 8 9 9 8 9 8 7 8 7 5
3 10 4 5 6 6 3 8 7 2 1 6 4 4 6 3 9 11 13 12 8 8 8 9 10 9 9 10 9 9 9 8 8 8 8 8 8 7 7 7 6 7 8 8
4 5 5 5 4 7 3 2 5 7 3 4 3 4 7 7 7 10 10 13 12 11 8 9 8 8 8 6 7 8 9 9 8 9 7 7 7 7 7 10 8 8 10 9
7 3 3 2 6 3 6 5 4 5 2 2 4 2 5 4 6 12 11 13 8 6 6 6 5 6 5 5 4 4 3 5 5 6 6 6 7 7 7 6 7 7 9 9
8 5 5 3 3 3 4 3 6 6 5 5 1 7 6 8 10 11 9 9 9 9 8 8 6 5 6 5 5 5 4 3 2 4 5 5 6 6 7 6 6 6 7 7
1 7 2 4 4 3 6 6 6 7 4 2 5 8 5 1 8 8 7 7 7 8 7 7 7 6 5 3 2 2 1 1 2 1 0 2 3 5 5 6 8 7 7 6
4 2 4 9 8 9 6 5 3 5 3 4 6 7 3 9 9 6 11 8 7 7 7 6 7 6 5 5 5 5 5 4 4 2 2 5 6 5 7 7 7 8 7 8
10 4 7 8 6 4 3 5 5 5 4 4 7 5 6 4 10 6 7 6 6 7 7 6 5 5 4 3 1 4 6 5 5 5 6 6 7 7 7 7 7 8 9 8
7 5 4 3 3 1 2 3 5 1 4 6 8 7 7 11 9 7 8 8 8 7 7 6 4 3 1 2 4 4 6 7 7 7 6 7 7 7 8 8 8 8 9 10
3 2 3 2 4 6 2 4 6 4 1 3 6 6 3 6 7 7 8 8 7 8 7 6 5 4 2 4 5 6 6 7 7 7 7 7 7 7 7 7 7 8 10 10
5 5 5 2 3 6 5 2 3 5 5 6 5 7 6 5 8 7 7 8 8 7 7 7 6 5 5 6 5 5 7 7 7 7 7 7 6 6 6 7 6 7 9 8
5 5 4 3 4 0 9 4 2 1 7 7 8 7 2 5 4 6 4 6 5 5 5 5 4 4 6 3 4 5 7 7 8 7 7 6 4 5 6 6 6 6 6 8
6 6 3 6 5 4 6 5 2 1 2 4 7 6 6 4 5 4 2 2 1 4 5 6 6 5 3 4 5 6 7 8 9 9 7 6 4 6 5 6 7 6 6 9
7 6 6 4 5 7 9 3 3 3 3 2 6 5 4 4 2 5 4 2 4 6 5 4 5 2 2 5 6 7 9 8 9 8 6 5 5 5 6 6 7 6 7 10
3 3 6 4 4 7 6 4 1 4 8 2 5 4 4 3 5 4 1 2 1 1 2 3 4 6 8 7 6 7 9 8 8 5 4 4 5 6 6 6 5 7 10 8
6 5 5 3 3 7 4 3 6 7 4 6 3 2 1 1 2 4 3 4 6 8 8 8 5 7 7 6 5 8 8 4 2 1 4 5 6 5 4 5 5 8 5 5
2 6 5 7 7 4 3 6 1 5 6 3 4 0 1 2 4 6 5 6 6 6 6 6 6 7 7 7 7 8 5 1 2 4 6 6 6 6 4 5 8 7 4 4
7 1 4 4 4 3 6 3 4 4 6 4 2 6 8 6 5 4 5 5 6 8 9 5 6 7 7 6 6 4 3 3 3 5 6 6 6 7 5 4 4 4 4 4
4 5 3 2 3 6 9 7 3 3 3 3 9 8 7 6 2 1 3 7 7 12 10 6 7 5 6 6 5 5 5 4 5 5 6 6 5 5 7 5 6 4 4 3
3 2 2 5 3 7 3 4 6 10 5 5 8 4 2 3 2 0 4 5 4 11 11 10 7 6 7 6 6 6 6 5 5 5 5 5 5 3 4 5 10 8 10 6
Wind_Direction
298 58 248 241 207 219 251 357 114 249 264 94 141 129 161 128 99 97 141 172 176 183 174 166 164 158 147 140 161 174 172 182 175 182 180 181 204 195 181 187 194 199 203 207
7 237 245 246 224 207 334 4 327 340 304 85 141 173 208 112 113 128 121 142 154 143 150 167 163 160 167 169 163 175 187 180 185 186 180 170 175 206 186 175 196 200 199 202
175 249 276 232 349 3 352 7 323 214 9 352 100 7 115 14 106 96 90 115 124 133 149 169 161 172 170 179 177 181 185 187 191 184 133 89 57 327 276 226 208 197 206 203
220 244 196 79 55 107 48 313 34 25 66 219 92 245 231 171 94 112 123 114 119 121 123 151 161 163 172 183 191 170 172 175 194 168 184 192 200 222 224 231 242 229 202 205
261 313 223 102 171 110 206 346 28 320 21 39 344 89 249 137 130 148 142 129 126 122 119 112 135 149 158 154 159 189 155 174 192 192 190 200 223 229 235 244 239 234 227 219
234 274 177 166 162 154 288 26 21 36 84 21 248 138 239 175 173 170 155 142 141 132 121 118 118 124 134 141 144 146 165 190 198 202 213 204 212 227 228 230 234 239 233 216
335 296 260 131 64 3 63 49 358 10 9 224 320 101 228 228 179 160 148 155 150 136 132 135 134 146 147 150 156 170 178 204 208 208 214 223 226 219 229 231 237 246 245 240
179 323 161 149 147 172 120 133 143 157 287 267 325 357 293 71 129 145 159 153 133 137 152 156 160 163 159 166 169 161 166 193 200 206 215 217 222 225 241 244 242 246 243 245
136 350 354 91 136 115 304 53 174 111 355 34 290 26 1 106 111 100 128 139 158 169 168 170 174 173 179 172 180 182 184 199 203 212 214 222 223 221 225 232 221 228 242 257
208 121 297 129 57 10 137 168 40 11 118 278 318 277 221 190 119 139 138 144 151 135 123 130 136 149 152 160 176 169 207 257 253 249 244 237 236 237 239 241 241 230 241 240
146 110 268 75 126 186 7 360 61 113 116 146 10 290 217 186 166 162 156 146 139 138 140 138 128 119 129 122 112 122 117 136 241 242 245 267 278 280 273 262 256 250 253 241
103 130 123 193 305 256 170 174 124 120 246 131 149 262 322 17 129 143 152 148 153 144 125 123 120 117 108 106 98 98 65 13 211 263 293 288 298 308 290 270 270 257 254 253
172 13 64 354 356 4 43 9 93 103 81 184 134 262 343 105 106 133 136 141 138 126 124 103 80 74 58 35 18 354 331 314 300 289 278 279 281 279 265 272 278 265 249 253
86 103 139 176 191 164 328 356 354 97 100 191 210 235 247 175 142 141 131 132 116 118 119 116 98 82 75 66 351 309 303 279 271 251 267 275 280 276 273 266 263 270 269 257
95 118 114 159 196 123 194 325 353 70 205 147 255 209 249 215 170 159 143 129 118 129 131 126 131 144 161 302 296 298 282 274 253 249 257 262 266 267 269 270 266 265 264 263
21 181 103 31 360 34 7 0 3 356 328 236 211 260 232 130 126 139 141 129 121 118 135 146 166 178 237 261 270 281 279 278 252 252 258 264 261 263 267 272 274 275 275 268
87 109 80 223 342 48 355 139 350 296 269 209 276 215 175 170 152 155 149 142 151 154 167 172 173 196 234 255 265 277 283 272 250 253 263 265 274 277 286 286 287 281 281 273
111 92 98 175 44 228 237 250 202 284 15 14 54 25 117 134 114 133 145 136 158 177 180 192 201 230 258 268 310 308 292 275 259 256 255 258 253 280 290 293 291 290 286 279
121 113 111 137 183 278 326 309 79 90 65 29 89 58 75 95 55 3 167 137 225 237 201 218 216 226 235 279 276 289 287 278 268 261 248 245 257 271 282 287 286 279 287 287
77 77 123 133 158 212 222 227 292 119 157 182 122 130 123 124 76 258 290 335 10 342 308 306 297 237 283 278 284 284 277 278 273 259 240 247 276 278 278 280 283 263 284 287
5 8 175 175 206 276 233 204 76 129 221 101 95 61 67 96 200 236 288 336 3 266 352 299 241 231 241 251 262 272 275 278 272 270 251 271 275 271 272 287 284 294 292 281
183 172 211 103 136 276 202 27 141 203 180 149 129 118 61 282 214 216 233 353 1 343 330 316 283 255 276 292 298 283 282 273 321 303 271 267 272 276 285 293 298 312 294 302
337 185 177 164 207 257 354 120 76 118 121 111 112 112 144 337 324 356 343 326 308 290 276 289 293 281 284 290 277 277 265 188 287 283 272 276 282 282 292 301 317 304 330 321
332 14 97 68 338 100 60 76 90 102 120 132 65 31 59 87 56 14 328 300 291 282 272 248 264 261 275 296 308 258 202 236 258 274 284 288 293 298 298 305 303 308 309 313
224 17 336 46 48 78 14 8 18 77 99 105 71 111 119 121 143 104 305 300 293 285 277 276 275 277 273 280 261 250 254 271 274 274 274 272 273 290 304 307 291 281 260 220
14 271 98 222 236 119 235 285 76 70 36 39 135 113 106 140 142 313 319 281 293 320 301 301 268 266 273 277 273 255 252 252 261 279 280 272 277 277 285 302 302 220 237 239